This is the latest recevied weather packets stored in our database for station/object S51UL-6. If no packets are shown the sender has not sent any weather packets the latest 10 day(s).
| Time | Temp. | Humidity | Pressure | Rain* | Wind** | Luminosity | Snow |
|---|---|---|---|---|---|---|---|
| 1777838938 | 15.56° C | 54% | 1017.2 hPa | 0 mm | - | - | - |
| 1777838345 | 15.56° C | 55% | 1017.3 hPa | 0 mm | - | - | - |
| 1777837440 | 15.56° C | 54% | 1017.4 hPa | 0 mm | - | - | - |
| 1777836539 | 15.56° C | 50% | 1017.4 hPa | 0 mm | - | - | - |
| 1777835938 | 16.11° C | 49% | 1017.2 hPa | 0 mm | - | - | - |
| 1777835639 | 16.67° C | 49% | 1017.1 hPa | 0 mm | - | - | - |
| 1777835343 | 16.67° C | 48% | 1017.3 hPa | 0 mm | - | - | - |
| 1777835039 | 16.67° C | 48% | 1017.2 hPa | 0 mm | - | - | - |
| 1777833841 | 17.78° C | 47% | 1017 hPa | 0 mm | - | - | - |
| 1777833538 | 18.33° C | 47% | 1017 hPa | 0 mm | - | - | - |
| 1777832940 | 18.33° C | 46% | 1016.7 hPa | 0 mm | - | - | - |
| 1777832339 | 19.44° C | 45% | 1016.7 hPa | 0 mm | - | - | - |
| 1777831741 | 20° C | 43% | 1016.5 hPa | 0 mm | - | - | - |
| 1777831442 | 20° C | 43% | 1016.4 hPa | 0 mm | - | - | - |
| 1777830240 | 20.56° C | 42% | 1016.3 hPa | 0 mm | - | - | - |
| 1777829942 | 21.11° C | 41% | 1016.5 hPa | 0 mm | - | - | - |
| 1777828743 | 21.67° C | 40% | 1016.4 hPa | 0 mm | - | - | - |
| 1777828442 | 22.22° C | 40% | 1016.3 hPa | 0 mm | - | - | - |
| 1777828141 | 22.22° C | 40% | 1016.2 hPa | 0 mm | - | - | - |
| 1777826942 | 22.78° C | 39% | 1016.2 hPa | 0 mm | - | - | - |
| 1777826641 | 22.78° C | 39% | 1016.2 hPa | 0 mm | - | - | - |
| 1777826040 | 22.78° C | 39% | 1016.2 hPa | 0 mm | - | - | - |
| 1777825740 | 22.78° C | 39% | 1016.2 hPa | 0 mm | - | - | - |
| 1777825443 | 23.33° C | 39% | 1016.2 hPa | 0 mm | - | - | - |
| 1777825141 | 23.33° C | 39% | 1016.2 hPa | 0 mm | - | - | - |
* Rain latest hour (hover to see other rain measurements)
** Current wind speed in m/s (hover to see current wind gust speed)